User: anonymous   Login
Location: Unspecified
(0.0000°N, 0.0000°E)
Time: 11:09:25
(UTC+00:00)
Language:

Aussat K1 - Orbit

View from above orbital plane
View from above orbital plane
View from above satellite
View from above satellite

Ground track
Ground track

The orbit data is extracted from the following two-line orbital elements,

1 15993U 85076B   17145.05983458 -.00000204 +00000-0 +00000-0 0  9990
2 15993 015.3192 007.5098 0005211 285.6292 067.6876 00.99757133086550
Epoch (UTC): 25 May 2017 01:26:09
Eccentricity: 0.0005211
inclination: 15.3192°
perigee height: 35909 km
apogee height: 35953 km
right ascension of ascending node: 7.5098°
argument of perigee: 285.6292°
revolutions per day: 0.99757133
mean anomaly at epoch: 67.6876°
orbit number at epoch: 8655

The dashed part of the orbit path shows where the satellite is in the earth's shadow,  

DLR